Tracking 28790 objects as of 19-Apr-2024
HD Live streaming from Space Station
objects crossing your sky now

TITAN 3C TRANSTAGE DEB

Track TITAN 3C TRANSTAGE DEB now!


NORAD ID: 26525
Int'l Code: 1965-108AL
Perigee: 588.9 km
Apogee: 28,948.6 km
Inclination: 26.2 °
Period: 509.8 minutes
Semi major axis: 21139 km
RCS: 0.1939 m2 (medium)
Launch date: December 21, 1965
Source: United States (US)
Launch site: AIR FORCE EASTERN TEST RANGE (AFETR)

Note: This is SATELLITE DEBRIS
Your satellite tracking list
Your tracking list is empty




NASA's NSSDC Master Catalog

Two Line Element Set (TLE):
1 26525U 65108AL  24108.48476976  .00000257  00000-0  20950-2 0  9998
2 26525  26.1998 156.2186 6707675 151.9770 357.3236  2.82458169248338
Source of the keplerian elements: AFSPC